• Join FlightAware (Why Join?)
  • Login
  • US Flag 
02:44AM EDT


 

Airport Tracker/Info


-or-


 

Live Flight TrackerFlight Track Log ✈ ASQ4252 ✈ 27-Nov-2013 ✈ KBTR - KIAH

Flight Track Log - Related Links

Times and Time Zones

All times are in EST time to prevent confusion due to time zone crossing. See the ASQ4252 flight status page for this flight to view local times or setup timezone preferences in your user account.

Time Position Orientation Groundspeed Altitude Reporting Facility
EST Latitude Longitude Course Direction KTS MPH feet Rate Location/Type
03:18PM 30.5761 -91.2028 270° West 180 207 24,000  Level Houston Center
03:19PM 30.5617 -91.2681 256° West 240 276 5,300 -7,980 Descending Houston Center
03:20PM 30.5414 -91.3458 253° West 249 287 7,600 2,220 Climbing Houston Center
03:22PM 30.5233 -91.4333 257° West 267 307 9,900 1,920 Climbing Houston Center
03:23PM 30.4758 -91.5378 242° Southwest 302 348 11,600 1,500 Climbing Houston Center
03:24PM 30.4599 -91.7759 270° West  Level Estimated
03:24PM 30.4211 -91.6253 234° Southwest 335 386 13,100  Level Houston Center
03:25PM 30.3642 -91.7161 234° Southwest 346 398 14,700 1,500 Climbing Houston Center
03:26PM 30.3042 -91.8100 234° Southwest 348 400 16,300 1,320 Climbing Houston Center
03:28PM 30.1867 -91.9947 234° Southwest 357 411 19,000 1,440 Climbing Houston Center
03:29PM 30.1150 -92.1064 233° Southwest 359 413 20,800 1,380 Climbing Houston Center
03:30PM 30.0544 -92.2011 234° Southwest 366 421 21,900 960 Climbing Houston Center
03:32PM 29.9250 -92.4000 233° Southwest 389 448 23,800 660 Climbing Houston Center
03:33PM 29.8583 -92.5047 234° Southwest 400 460 24,000 60 Climbing Houston Center
03:34PM 29.7889 -92.6119 233° Southwest 412 474 24,000  Level Houston Center
03:35PM 29.7031 -92.7444 233° Southwest 427 491 24,000  Level Houston Center
03:36PM 29.6322 -92.8528 233° Southwest 425 489 24,000  Level Houston Center
03:37PM 29.5878 -92.9683 246° West 404 465 24,000  Level Houston Center
03:38PM 29.5783 -93.0956 265° West 397 457 24,000  Level Houston Center
03:39PM 29.5689 -93.2206 265° West 395 455 24,000  Level Houston Center
03:40PM 29.5594 -93.3647 266° West 397 457 24,000  Level Houston Center
03:41PM 29.5492 -93.4961 265° West 408 470 24,000 -120 Level Houston Center
03:42PM 29.5381 -93.6278 264° West 414 476 23,800 -1,080 Descending Houston Center
03:43PM 29.5283 -93.7575 265° West 411 473 21,800 -1,980 Descending Houston Center
03:44PM 29.5186 -93.8842 265° West 403 464 19,800 -2,220 Descending Houston Center
03:45PM 29.5206 -94.0008 271° West 382 440 17,700 -2,040 Descending Houston Center
03:45PM 29.5228 -94.0061 296° West 389 448 17,700 -1,740 Level Houston Center
03:46PM 29.5239 -94.1158 271° West 368 423 16,100 -2,160 Descending Houston Center
03:46PM 29.5269 -94.1475 276° West 375 432 15,500 -2,280 Descending Houston Center
03:47PM 29.5283 -94.2233 271° West 337 388 13,800 -2,040 Descending Houston Center
03:47PM 29.5308 -94.2542 275° West 347 399 13,400 -840 Descending Houston Center
03:48PM 29.5333 -94.3356 272° West 324 373 13,000 -420 Descending Houston Center
03:48PM 29.5375 -94.3561 283° West 329 379 13,000 -1,200 Level Houston Center
03:49PM 29.5681 -94.4297 296° West 322 371 11,800 -1,500 Descending Houston Center
03:49PM 29.5778 -94.4475 302° West 321 369 11,500 -1,200 Descending Houston Center
03:50PM 29.6033 -94.5117 295° West 299 344 10,700 -1,200 Descending Houston Center
03:51PM 29.6153 -94.5342 301° West 310 357 10,300 -1,500 Descending Houston Center
03:51PM 29.6519 -94.5775 314° West 269 310 9,200 -1,680 Descending Houston Center
03:52PM 29.6772 -94.6056 316° Northwest 268 308 8,600 -1,200 Descending Houston Center
03:52PM 29.7056 -94.6333 320° Northwest 257 296 8,000 -1,080 Descending Houston Center
03:53PM 29.7278 -94.6617 312° West 256 295 7,500 -1,140 Descending Houston Center
03:53PM 29.7539 -94.6994 309° West 250 288 6,900 -900 Descending Houston Center
03:54PM 29.7725 -94.7225 313° West 252 290 6,600 -1,020 Descending Houston Center
03:54PM 29.8000 -94.7611 309° West 248 285 5,900 -900 Descending Houston Center
03:55PM 29.8167 -94.7817 313° West 248 285 5,700 -600 Descending Houston Center
03:55PM 29.8433 -94.8181 310° West 239 275 5,300 -600 Descending Houston Center
03:56PM 29.8586 -94.8411 307° West 242 278 5,100 -720 Descending Houston Center
03:56PM 29.8753 -94.8889 292° West 237 273 4,600 -780 Descending Houston Center
03:57PM 29.8892 -94.9250 294° West 240 276 4,300 -720 Descending Houston Center
03:57PM 29.9031 -94.9603 294° West 240 276 3,900 -780 Descending Houston Center
03:58PM 29.9161 -94.9939 294° West 239 275 3,500 -780 Descending Houston Center
03:58PM 29.9306 -95.0292 295° West 232 267 3,100 -720 Descending Houston Center
03:59PM 29.9439 -95.0581 298° West 234 269 2,800 -540 Descending Houston Center
03:59PM 29.9594 -95.0931 297° West 217 250 2,600 -420 Descending Houston Center
04:00PM 29.9708 -95.1203 296° West 225 259 2,400 -420 Descending Houston Center
04:00PM 29.9764 -95.1608 279° West 215 247 2,200 -420 Descending Houston Center
04:01PM 29.9761 -95.1853 269° West 214 246 2,000 -540 Descending Houston Center
04:01PM 29.9769 -95.2139 272° West 160 184 1,700 -780 Descending Houston Center
04:02PM 29.9772 -95.2447 271° West 179 206 1,200 -720 Descending Houston Center
04:02PM 29.9772 -95.2619 270° West 128 147 900 -720 Descending Houston Center
04:03PM 29.9778 -95.2850 272° West 149 171 500 -420 Descending Houston Center
04:04PM 29.9769 -95.3264 269° West 146 168 300 -240 Descending Houston Center